User: anonymous   Login
Location: Unspecified
(0.0000°N, 0.0000°E)
Time: 17:26:44
(UTC+00:00)
Language:

DIAMOND GREEN - Orbit

View from above orbital plane
View from above orbital plane
View from above satellite
View from above satellite

Ground track
Ground track

The orbit data is extracted from the following two-line orbital elements,

1 42785U 17036W   18113.15653932  .00001224  00000-0  57726-4 0  9991
2 42785  97.4066 173.7790 0010649 269.7223  90.2793 15.21335270 46138
Epoch (UTC): 23 April 2018 03:45:24
Eccentricity: 0.0010649
inclination: 97.4066°
perigee height: 494 km
apogee height: 509 km
right ascension of ascending node: 173.7790°
argument of perigee: 269.7223°
revolutions per day: 15.21335270
mean anomaly at epoch: 90.2793°
orbit number at epoch: 4613

The dashed part of the orbit path shows where the satellite is in the earth's shadow,  

DLR